DW0417 Weather Reports


Display with metric or nautical units.
time (UTC)temp
F
wind
direction
speed
MPH
gust
MPH
rain 1hr
in
rain 24hr
in
rain mn
in
humidity
%
barometer
mb
20260906220514 85 286 4.0 7.0 0.00 0.00 0.00 39 1014.5
20260906215515 87 293 4.0 9.0 0.00 0.00 0.00 38 1014.5
20260906215006 87 261 4.0 8.0 0.00 0.00 0.00 37 1014.8
20260906213951 86 295 2.0 8.0 0.00 0.00 0.00 38 1014.9
20260906212515 86 46 1.0 5.0 0.00 0.00 0.00 37 1015.1
20260906211515 85 52 0.0 3.0 0.00 0.00 0.00 39 1015.1
20260906210514 84 52 0.0 3.0 0.00 0.00 0.00 41 1015.5
20260906205514 85 52 0.0 2.0 0.00 0.00 0.00 38 1015.6
20260906204515 85 53 0.0 0.0 0.00 0.00 0.00 40 1015.6
20260906203515 86 53 0.0 1.0 0.00 0.00 0.00 36 1015.7
20260906202516 85 53 1.0 6.0 0.00 0.00 0.00 38 1015.8
20260906201950 86 47 2.0 7.0 0.00 0.00 0.00 36 1015.9
20260906200515 87 63 1.0 6.0 0.00 0.00 0.00 37 1015.9
20260906195515 87 304 3.0 7.0 0.00 0.00 0.00 38 1016.0
20260906194516 87 335 2.0 7.0 0.00 0.00 0.00 39 1016.0
20260906193512 87 56 2.0 7.0 0.00 0.00 0.00 39 1016.2
20260906192512 86 356 2.0 7.0 0.00 0.00 0.00 38 1016.3
20260906191512 86 53 1.0 5.0 0.00 0.00 0.00 41 1016.5
20260906190512 85 341 2.0 7.0 0.00 0.00 0.00 44 1016.6
20260906185513 85 46 2.0 7.0 0.00 0.00 0.00 44 1016.9
20260906184513 85 13 1.0 4.0 0.00 0.00 0.00 46 1017.0
20260906183507 83 58 1.0 5.0 0.00 0.00 0.00 46 1017.2
20260906182506 82 319 2.0 7.0 0.00 0.00 0.00 50 1017.4
20260906181507 82 44 1.0 4.0 0.00 0.00 0.00 50 1017.6
20260906180947 81 44 2.0 7.0 0.00 0.00 0.00 51 1017.7
20260906175507 82 47 1.0 6.0 0.00 0.00 0.00 50 1017.9
20260906174507 80 51 4.0 9.0 0.00 0.00 0.00 50 1018.1
20260906173504 79 68 3.0 7.0 0.00 0.00 0.00 51 1018.5
20260906172505 79 46 1.0 7.0 0.00 0.00 0.00 54 1018.7
20260906171505 78 174 2.0 6.0 0.00 0.00 0.00 55 1018.8
20260906170500 78 46 1.0 5.0 0.00 0.00 0.00 59 1018.7
20260906165939 77 335 1.0 5.0 0.00 0.00 0.00 60 1019.0
20260906164459 75 46 2.0 5.0 0.00 0.00 0.00 62 1019.1
20260906163458 75 46 1.0 5.0 0.00 0.00 0.00 63 1019.2
20260906162458 74 47 1.0 3.0 0.00 0.00 0.00 66 1019.2
20260906161500 73 47 2.0 4.0 0.00 0.00 0.00 66 1019.2
20260906160458 74 51 0.0 5.0 0.00 0.00 0.00 64 1019.1
20260906155458 74 182 1.0 3.0 0.00 0.00 0.00 67 1019.1
20260906154459 72 345 1.0 3.0 0.00 0.00 0.00 69 1019.1
20260906153459 71 174 2.0 5.0 0.00 0.00 0.00 72 1019.2
20260906152458 71 52 1.0 3.0 0.00 0.00 0.00 73 1019.2
20260906151459 70 87 1.0 5.0 0.00 0.00 0.00 75 1019.3
20260906150458 70 84 0.0 2.0 0.00 0.00 0.00 75 1019.3
20260906145458 68 51 0.0 2.0 0.00 0.00 0.00 77 1019.4
20260906144459 67 51 0.0 2.0 0.00 0.00 0.00 79 1019.4
20260906143458 68 51 0.0 2.0 0.00 0.00 0.00 78 1019.4
20260906142932 68 51 1.0 4.0 0.00 0.00 0.00 77 1019.4
20260906141453 67 74 1.0 4.0 0.00 0.00 0.00 78 1019.2
20260906140454 66 324 1.0 3.0 0.00 0.00 0.00 79 1019.4
20260906135452 66 291 2.0 4.0 0.00 0.00 0.00 80 1019.2
20260906135415 65 293 0.0 3.0 0.00 0.00 0.00 80 1019.2
20260906133451 64 268 0.0 2.0 0.00 0.00 0.00 81 1019.2
20260906133413 62 271 0.0 1.0 0.00 0.00 0.00 82 1019.2
20260906131941 61 295 0.0 2.0 0.00 0.00 0.00 82 1019.1
20260906130453 60 295 0.0 0.0 0.00 0.00 0.00 83 1019.2
20260906125452 60 296 0.0 0.0 0.00 0.00 0.00 84 1019.1
20260906124447 59 296 0.0 0.0 0.00 0.00 0.00 83 1019.0
20260906123447 60 296 0.0 0.0 0.00 0.00 0.00 83 1018.8
20260906122929 60 296 0.0 0.0 0.00 0.00 0.00 83 1019.0
20260906121447 60 296 0.0 1.0 0.00 0.00 0.00 82 1018.8
20260906120447 60 296 0.0 0.0 0.00 0.00 0.00 82 1018.7
20260906115918 59 296 0.0 1.0 0.00 0.00 0.00 81 1018.8
20260906114446 61 297 0.0 0.0 0.00 0.00 0.00 81 1018.7
20260906113447 61 297 0.0 0.0 0.00 0.00 0.00 80 1018.7
20260906112447 62 296 0.0 0.0 0.00 0.00 0.00 77 1018.7
20260906111444 62 296 0.0 1.0 0.00 0.00 0.00 76 1018.5
20260906110443 63 296 0.0 1.0 0.00 0.00 0.00 73 1018.5
20260906105443 64 297 1.0 3.0 0.00 0.00 0.00 73 1018.6
20260906104921 63 298 0.0 2.0 0.00 0.00 0.00 72 1018.7
20260906103444 63 296 0.0 2.0 0.00 0.00 0.00 72 1018.6
20260906102442 63 226 0.0 0.0 0.00 0.00 0.00 73 1018.6
20260906101442 63 226 0.0 0.0 0.00 0.00 0.00 73 1018.6
20260906100928 63 214 0.0 0.0 0.00 0.00 0.00 72 1018.6
20260906095926 63 214 0.0 0.0 0.00 0.00 0.00 70 1018.6
20260906094441 64 214 0.0 0.0 0.00 0.00 0.00 68 1018.5
20260906093440 65 214 0.0 0.0 0.00 0.00 0.00 66 1018.6
20260906092440 65 214 0.0 0.0 0.00 0.00 0.00 65 1018.5
20260906091440 65 181 1.0 3.0 0.00 0.00 0.00 65 1018.3
20260906090440 67 72 0.0 2.0 0.00 0.00 0.00 63 1018.0
20260906085920 67 72 0.0 2.0 0.00 0.00 0.00 61 1017.8
20260906084440 68 62 0.0 1.0 0.00 0.00 0.00 60 1017.8
20260906083439 68 302 1.0 3.0 0.00 0.00 0.00 59 1017.7
20260906082440 67 276 1.0 4.0 0.00 0.00 0.00 60 1017.6
20260906081440 67 315 0.0 0.0 0.00 0.00 0.00 60 1017.7
20260906081406 68 258 1.0 2.0 0.00 0.00 0.00 58 1017.7
20260906075437 67 293 0.0 1.0 0.00 0.00 0.00 62 1017.7
20260906074917 67 293 0.0 1.0 0.00 0.00 0.00 62 1017.7
20260906073433 67 261 0.0 1.0 0.00 0.00 0.00 60 1017.8
20260906072432 69 274 1.0 4.0 0.00 0.00 0.00 59 1017.8
20260906071433 69 232 1.0 3.0 0.00 0.00 0.00 59 1017.9
20260906070432 70 175 0.0 0.0 0.00 0.00 0.00 56 1017.6
20260906065431 70 176 0.0 3.0 0.00 0.00 0.00 55 1017.8
20260906064433 72 99 0.0 3.0 0.00 0.00 0.00 54 1017.7
20260906063433 73 302 0.0 2.0 0.00 0.00 0.00 51 1017.7
20260906062431 74 308 1.0 3.0 0.00 0.00 0.00 50 1017.8
20260906061431 74 313 2.0 4.0 0.00 0.00 0.00 49 1017.9
20260906060432 74 265 3.0 2.0 0.00 0.00 0.00 49 1017.4
20260906055225 74 52 0.0 0.0 0.00 0.00 0.00 48 1017.6
20260906054705 74 52 0.0 0.0 0.00 0.00 0.00 47 1018.0
20260906053225 74 73 1.0 4.0 0.00 0.00 0.00 47 1018.3
20260906052226 74 96 5.0 9.0 0.00 0.00 0.00 50 1018.4
20260906051225 74 84 2.0 6.0 0.00 0.00 0.00 47 1018.3
20260906050704 74 82 1.0 4.0 0.00 0.00 0.00 45 1017.8
20260906045226 75 61 0.0 2.0 0.00 0.00 0.00 43 1017.7
20260906044225 75 61 0.0 4.0 0.00 0.00 0.00 43 1017.6
20260906043220 74 56 2.0 4.0 0.00 0.00 0.00 45 1017.6
20260906042220 74 5 0.0 1.0 0.00 0.00 0.00 43 1017.6
20260906041219 74 224 1.0 3.0 0.00 0.00 0.00 45 1017.4
20260906041133 73 224 1.0 4.0 0.00 0.00 0.00 46 1017.3
20260906035656 73 159 0.0 0.0 0.00 0.00 0.00 46 1017.1
20260906034220 74 56 0.0 0.0 0.00 0.00 0.00 46 1016.6
20260906033220 75 56 0.0 3.0 0.00 0.00 0.00 43 1016.6
20260906032220 75 65 1.0 5.0 0.00 0.00 0.00 44 1016.7
20260906031220 76 54 0.0 3.0 0.00 0.00 0.00 43 1016.7
20260906030215 77 55 0.0 3.0 0.00 0.00 0.00 42 1016.3
20260906025214 78 60 1.0 4.0 0.00 0.00 0.00 40 1015.9
20260906024214 80 97 4.0 6.0 0.00 0.00 0.00 37 1015.8
20260906023648 82 147 2.0 6.0 0.00 0.00 0.00 34 1015.8
20260906022214 82 53 1.0 5.0 0.00 0.00 0.00 34 1015.6
20260906021647 82 353 0.0 3.0 0.00 0.00 0.00 34 1015.5
20260906020213 83 260 2.0 7.0 0.00 0.00 0.00 33 1015.7
20260906015213 83 233 6.0 11.0 0.00 0.00 0.00 32 1015.7
20260906014215 83 226 4.0 13.0 0.00 0.00 0.00 33 1015.7
20260906013211 83 233 3.0 10.0 0.00 0.00 0.00 33 1015.6
20260906012211 83 296 4.0 9.0 0.00 0.00 0.00 33 1015.5
20260906011211 84 265 4.0 10.0 0.00 0.00 0.00 31 1015.5
20260906010211 84 261 6.0 11.0 0.00 0.00 0.00 31 1015.5
20260906005210 85 226 5.0 12.0 0.00 0.00 0.00 30 1015.6
20260906004702 86 281 5.0 12.0 0.00 0.00 0.00 31 1015.6
20260906003211 86 287 6.0 12.0 0.00 0.00 0.00 29 1015.7
20260906002210 86 265 6.0 14.0 0.00 0.00 0.00 29 1015.6
20260906001647 87 258 7.0 17.0 0.00 0.00 0.00 29 1015.6
20260906000212 88 262 4.0 10.0 0.00 0.00 0.00 28 1015.5
20260905235211 89 297 2.0 8.0 0.00 0.00 0.00 27 1015.5
20260905234211 89 297 2.0 5.0 0.00 0.00 0.00 26 1015.5
20260905233210 89 298 3.0 7.0 0.00 0.00 0.00 26 1015.3
20260905232212 90 326 0.0 5.0 0.00 0.00 0.00 26 1015.2
20260905231212 90 297 0.0 3.0 0.00 0.00 0.00 26 1015.2
20260905230211 91 304 1.0 3.0 0.00 0.00 0.00 25 1015.1
20260905225212 91 304 0.0 0.0 0.00 0.00 0.00 25 1015.1
20260905225134 91 304 0.0 2.0 0.00 0.00 0.00 24 1015.1
20260905223208 91 316 4.0 10.0 0.00 0.00 0.00 24 1015.1
20260905222209 93 329 1.0 5.0 0.00 0.00 0.00 23 1015.1